Regional Weather Roundup
Issued by NWS

Home | Current Version | Previous Version | Text Only | Print | Product List | Glossary Off
Versions: 1 2 3 4 5 6 7 8 9 10 11 12 13 14 15 16 17 18 19 20 21 22 23 24 25 26 27 28 29 30 31 32 33 34 35 36 37 38 39 40 41 42 43 44 45 46 47 48 49 50

000
ASUS43 KLSX 161807
RWRMO

WEATHER SUMMARY FOR MISSOURI
NATIONAL WEATHER SERVICE SPRINGFIELD MO
100 PM CDT MON OCT 16 2017

NOTE: "FAIR" INDICATES FEW OR NO CLOUDS BELOW 12,000 FEET WITH NO
       SIGNIFICANT WEATHER AND/OR OBSTRUCTIONS TO VISIBILITY.
       CURRENT SKY AND/OR WEATHER CONDITIONS ARE NOT AVAILABLE FOR
       CHILLICOTHE AND FARMINGTON.

MOZ001>031-035>038-043-044-053-054-161900-
...NORTHERN AND WESTERN MISSOURI...

CITY           SKY/WX    TMP DP  RH WIND       PRES   REMARKS
KANSAS CTY INT SUNNY     66  39  37 SW12      30.36F
6HR MIN TEMP:  37; 6HR MAX TEMP:  66;

KANSAS C DTWN  SUNNY     67  41  38 SW7       30.36F
6HR MIN TEMP:  42; 6HR MAX TEMP:  67;

LEE`S SUMMIT   SUNNY     66  39  37 SW9       30.38F
6HR MIN TEMP:  43; 6HR MAX TEMP:  66;

ST JOSEPH      SUNNY     69  39  33 S10       30.34F
6HR MIN TEMP:  33; 6HR MAX TEMP:  69;

CHILLICOTHE      N/A     67  37  33 VRB6      30.36F
6HR MIN TEMP:  36; 6HR MAX TEMP:  67;

KIRKSVILLE     SUNNY     65  40  39 W8        30.36F
6HR MIN TEMP:  39; 6HR MAX TEMP:  65;


$$
MOZ066>068-077>081-088>096-101>105-161900-
...SOUTHWEST MISSOURI...

CITY           SKY/WX    TMP DP  RH WIND       PRES   REMARKS
SPRINGFIELD    SUNNY     65  34  31 N8        30.40F
6HR MIN TEMP:  38; 6HR MAX TEMP:  66;

JOPLIN         SUNNY     63  37  38 CALM      30.42F
6HR MIN TEMP:  38; 6HR MAX TEMP:  64;

BRANSON        SUNNY     63  34  34 E6        30.42F

$$
MOZ032>034-039>042-045>050-055>058-069>072-161900-
...CENTRAL MISSOURI...

CITY           SKY/WX    TMP DP  RH WIND       PRES   REMARKS
COLUMBIA       SUNNY     64  40  41 W9        30.38F
6HR MIN TEMP:  42; 6HR MAX TEMP:  64;

JEFFERSON CITY SUNNY     64  37  36 SW7       30.38F
6HR MIN TEMP:  39; 6HR MAX TEMP:  65;

ROLLA          SUNNY     61  32  33 VRB3      30.40F
6HR MIN TEMP:  39; 6HR MAX TEMP:  63;

SEDALIA        SUNNY     66  42  41 SW9       30.39F
6HR MIN TEMP:  42; 6HR MAX TEMP:  66;

WHITEMAN AFB   SUNNY     65  41  42 W6        30.34F
WARRENSBURG    SUNNY     64  39  39 S7        30.39F
OSAGE BEACH    SUNNY     63  38  39 VRB5      30.40F

$$
MOZ051-052-059>065-161900-
...EAST CENTRAL MISSOURI...

CITY           SKY/WX    TMP DP  RH WIND       PRES   REMARKS
ST LOUIS INTL  MOSUNNY   63  37  38 CALM      30.38F
6HR MIN TEMP:  43; 6HR MAX TEMP:  64;

SPIRIT OF STL  SUNNY     63  40  42 S3        30.37F
6HR MIN TEMP:  41; 6HR MAX TEMP:  63;

ST CHARLES     SUNNY     63  36  36 MISG      30.37F
6HR MIN TEMP:  39; 6HR MAX TEMP:  63;


$$
MOZ072>076-082>087-097>100-106>115-161900-
...SOUTH CENTRAL AND SOUTHEAST MISSOURI...

CITY           SKY/WX    TMP DP  RH WIND       PRES   REMARKS
CAPE GIRARDEAU SUNNY     63  39  41 VRB3G16   30.38F
6HR MIN TEMP:  37; 6HR MAX TEMP:  63;

FARMINGTON     SUNNY     60  34  37 N5        30.40F
6HR MIN TEMP:  38; 6HR MAX TEMP:  61;

POPLAR BLUFF   SUNNY     65  37  35 E9        30.38F
6HR MIN TEMP:  43; 6HR MAX TEMP:  65;

WEST PLAINS    SUNNY     64  33  31 E8        30.41F
6HR MIN TEMP:  40; 6HR MAX TEMP:  66;


$$



USA.gov is the U.S. government's official web portal to all federal, state and local government web resources and services.